Location: Dodge City Community College Clyde Tombaugh Astronomy Center
(37.7756°N, 100.0412°W)
Time: 08:31:26
(UTC+00:00)

N. Korean satellite - Visible Passes

Search period start: 04 December 2022 00:00
Search period end: 14 December 2022 00:00
Orbit: 421 x 453 km, 97.3° (Epoch: 03 December)

Date Brightness Start Highest point End Pass type
(mag) Time Alt. Az. Time Alt. Az. Time Alt. Az.
04 Dec 8.9 11:19:03 10° NE 11:21:47 22° E 11:24:29 10° SSE visible
04 Dec 8.0 12:51:54 10° NNW 12:54:05 16° WNW 12:56:14 10° WSW visible
05 Dec 6.4 12:12:05 10° N 12:15:25 55° WNW 12:18:41 10° SSW visible
06 Dec 9.8 00:13:31 10° WSW 00:15:10 13° W 00:16:50 10° WNW visible
06 Dec 8.0 11:33:20 10° NNE 11:36:29 35° E 11:39:35 10° SSE visible
06 Dec 8.4 13:07:50 10° NW 13:08:36 11° WNW 13:09:21 10° W visible
07 Dec 9.9 10:56:35 10° E 10:57:19 11° E 10:58:02 10° ESE visible
07 Dec 7.0 12:26:52 10° N 12:29:57 33° WNW 12:32:58 10° SW visible
08 Dec 6.9 11:47:42 10° NNE 11:51:02 60° E 11:54:18 10° S visible
08 Dec 8.9 23:47:38 10° SSW 23:50:34 27° W 23:53:33 10° NW visible
09 Dec 9.4 11:09:39 10° NE 11:11:52 16° E 11:14:03 10° SE visible
09 Dec 7.6 12:41:40 10° NNW 12:44:18 21° WNW 12:46:53 10° WSW visible
10 Dec 6.2 12:02:02 10° N 12:05:24 80° WNW 12:08:42 10° SSW visible
11 Dec 9.6 00:02:36 10° SW 00:04:59 18° W 00:07:24 10° NW visible
11 Dec 8.6 11:23:25 10° NE 11:26:15 25° E 11:29:02 10° SSE visible
11 Dec 8.1 12:56:38 10° NW 12:58:29 14° WNW 13:00:19 10° WSW visible
12 Dec 6.5 12:16:22 10° N 12:19:36 47° WNW 12:22:47 10° SSW visible
13 Dec 9.9 00:18:01 10° WSW 00:19:17 12° W 00:20:34 10° WNW visible
13 Dec 7.7 11:37:17 10° NNE 11:40:28 40° E 11:43:34 10° S visible
